^^
Station Historical Data
Daily Summary for January 11, 2018 Units:  Metric    English   Both
« Previous Day
Next Day »
Daily Weekly Monthly Yearly Custom
  High: Low: Average:
Temperature: -17.8 °C -3.6 °C 0.1 °C
Dew Point: -17.8 °C -4.5 °C -0.5 °C
Humidity: Humidity % 93 % 95 %
Wind Speed: 0 km/h 0 km/h 0 km/h
Wind Gust: 0 km/h - -
Wind:- - NNW
Pressure: 0 hPa 1011.1 hPa -
Precipitation: 0 mm    
Historical Graphs
 
 
Tabular Data for January 11, 2018
Time Temperature Dew Point Pressure Wind Wind Speed Wind Gust Humidity Rainfall Rate (Hourly) solar Conditions
-17.8 °C -17.8 °C 0 hPa Calm     Humidity % 0 mm SoftwareType W/m2 Conditions
00:09 -3.6 °C -4.5 °C 1018.5 hPa Calm     93 % 0 mm WeatherDisplay:10.37 W/m2 RA
00:19 -3.4 °C -4.3 °C 1018.5 hPa Calm   1.6 km/h 93 % 0 mm WeatherDisplay:10.37 W/m2 OVC
00:24 -3.3 °C -4.2 °C 1018.5 hPa Calm     94 % 0 mm WeatherDisplay:10.37 W/m2 OVC
00:34 -3.2 °C -4.1 °C 1018.5 hPa NNW 1.6 km/h 4.8 km/h 94 % 0 mm WeatherDisplay:10.37 W/m2 OVC
00:44 -3.1 °C -3.9 °C 1018.5 hPa Calm     94 % 0 mm WeatherDisplay:10.37 W/m2 OVC
01:04 -3 °C -3.8 °C 1018.2 hPa Calm     94 % 0 mm WeatherDisplay:10.37 W/m2 OVC
01:09 -3 °C -3.8 °C 1018.2 hPa Calm     94 % 0 mm WeatherDisplay:10.37 W/m2 OVC
01:14 -3 °C -3.8 °C 1018.2 hPa Calm     94 % 0 mm WeatherDisplay:10.37 W/m2 OVC
01:19 -2.9 °C -3.8 °C 1018.2 hPa Calm     94 % 0 mm WeatherDisplay:10.37 W/m2 OVC
01:24 -2.9 °C -3.7 °C 1018.2 hPa Calm     94 % 0 mm WeatherDisplay:10.37 W/m2 OVC
01:29 -2.8 °C -3.7 °C 1018.2 hPa Calm     94 % 0 mm WeatherDisplay:10.37 W/m2 OVC
01:34 -2.8 °C -3.6 °C 1018.2 hPa Calm     94 % 0 mm WeatherDisplay:10.37 W/m2 OVC
01:39 -2.7 °C -3.6 °C 1018.2 hPa Calm     94 % 0.25 mm WeatherDisplay:10.37 W/m2 RA
01:44 -2.7 °C -3.6 °C 1018.5 hPa Calm     94 % 0 mm WeatherDisplay:10.37 W/m2 RA
01:49 -2.6 °C -3.4 °C 1018.5 hPa Calm     94 % 0 mm WeatherDisplay:10.37 W/m2 OVC
01:54 -2.6 °C -3.4 °C 1018.5 hPa Calm     94 % 0 mm WeatherDisplay:10.37 W/m2 OVC
01:59 -2.6 °C -3.4 °C 1018.5 hPa Calm     94 % 0 mm WeatherDisplay:10.37 W/m2 OVC
02:04 -2.6 °C -3.4 °C 1018.5 hPa Calm     94 % 0 mm WeatherDisplay:10.37 W/m2 OVC
02:14 -2.5 °C -3.3 °C 1018.5 hPa Calm     94 % 0 mm WeatherDisplay:10.37 W/m2 OVC
02:19 -2.4 °C -3.3 °C 1018.5 hPa Calm     94 % 0 mm WeatherDisplay:10.37 W/m2 OVC
02:24 -2.4 °C -3.2 °C 1018.5 hPa Calm     94 % 0 mm WeatherDisplay:10.37 W/m2 OVC
02:34 -2.3 °C -3.1 °C 1018.5 hPa Calm     94 % 0 mm WeatherDisplay:10.37 W/m2 OVC
02:39 -2.3 °C -3.1 °C 1018.5 hPa Calm     94 % 0 mm WeatherDisplay:10.37 W/m2 OVC
02:45 -2.2 °C -3.1 °C 1018.5 hPa Calm     94 % 0 mm WeatherDisplay:10.37 W/m2 OVC
02:54 -2.2 °C -3 °C 1018.5 hPa Calm     94 % 0 mm WeatherDisplay:10.37 W/m2 OVC
02:59 -2.2 °C -3 °C 1018.5 hPa Calm     94 % 0 mm WeatherDisplay:10.37 W/m2 OVC
03:04 -2.1 °C -2.9 °C 1018.2 hPa Calm     94 % 0 mm WeatherDisplay:10.37 W/m2 OVC
03:09 -2.1 °C -2.9 °C 1018.5 hPa Calm     94 % 0 mm WeatherDisplay:10.37 W/m2 OVC
03:14 -2.1 °C -2.9 °C 1018.2 hPa Calm     94 % 0 mm WeatherDisplay:10.37 W/m2 OVC
03:19 -2.1 °C -2.7 °C 1018.2 hPa Calm     95 % 0 mm WeatherDisplay:10.37 W/m2 OVC
03:24 -2 °C -2.7 °C 1018.2 hPa Calm     95 % 0 mm WeatherDisplay:10.37 W/m2 OVC
03:29 -1.9 °C -2.6 °C 1018.2 hPa Calm     95 % 0 mm WeatherDisplay:10.37 W/m2 OVC
03:40 -1.9 °C -2.6 °C 1018.2 hPa Calm     95 % 0 mm WeatherDisplay:10.37 W/m2 OVC
03:45 -1.9 °C -2.6 °C 1018.2 hPa Calm     95 % 0 mm WeatherDisplay:10.37 W/m2 OVC
04:04 -1.8 °C -2.5 °C 1018.2 hPa Calm     95 % 0 mm WeatherDisplay:10.37 W/m2 OVC
04:09 -1.7 °C -2.4 °C 1018.2 hPa Calm     95 % 0 mm WeatherDisplay:10.37 W/m2 OVC
04:14 -1.7 °C -2.4 °C 1018.2 hPa Calm     95 % 0 mm WeatherDisplay:10.37 W/m2 OVC
04:19 -1.6 °C -2.3 °C 1017.8 hPa Calm     95 % 0 mm WeatherDisplay:10.37 W/m2 OVC
04:24 -1.6 °C -2.3 °C 1017.8 hPa Calm     95 % 0 mm WeatherDisplay:10.37 W/m2 OVC
04:29 -1.6 °C -2.3 °C 1017.8 hPa Calm     95 % 0 mm WeatherDisplay:10.37 W/m2 OVC
04:34 -1.5 °C -2.2 °C 1017.8 hPa Calm     95 % 0 mm WeatherDisplay:10.37 W/m2 OVC
04:39 -1.5 °C -2.2 °C 1018.2 hPa Calm     95 % 0 mm WeatherDisplay:10.37 W/m2 OVC
04:44 -1.4 °C -2.1 °C 1018.2 hPa Calm     95 % 0 mm WeatherDisplay:10.37 W/m2 OVC
04:49 -1.4 °C -2.1 °C 1018.2 hPa Calm     95 % 0 mm WeatherDisplay:10.37 W/m2 OVC
04:54 -1.3 °C -2.1 °C 1018.2 hPa Calm     95 % 0 mm WeatherDisplay:10.37 W/m2 OVC
04:59 -1.3 °C -2.1 °C 1018.2 hPa Calm     95 % 0 mm WeatherDisplay:10.37 W/m2 OVC
05:04 -1.3 °C -2 °C 1018.2 hPa Calm     95 % 0 mm WeatherDisplay:10.37 W/m2 OVC
05:14 -1.2 °C -1.9 °C 1018.2 hPa Calm     95 % 0 mm WeatherDisplay:10.37 W/m2 OVC
05:19 -1.2 °C -1.9 °C 1018.2 hPa Calm     95 % 0.25 mm WeatherDisplay:10.37 W/m2 RA
05:29 -1.1 °C -1.8 °C 1018.2 hPa Calm     95 % 0 mm WeatherDisplay:10.37 W/m2 OVC
05:34 -1 °C -1.7 °C 1017.8 hPa Calm     95 % 0 mm WeatherDisplay:10.37 W/m2 OVC
05:39 -1 °C -1.7 °C 1017.8 hPa Calm     95 % 0 mm WeatherDisplay:10.37 W/m2 OVC
05:44 -0.9 °C -1.7 °C 1017.8 hPa Calm     95 % 0 mm WeatherDisplay:10.37 W/m2 OVC
05:49 -0.9 °C -1.7 °C 1017.8 hPa Calm     95 % 0 mm WeatherDisplay:10.37 W/m2 OVC
05:54 -0.9 °C -1.6 °C 1017.8 hPa Calm     95 % 0 mm WeatherDisplay:10.37 W/m2 OVC
06:04 -0.8 °C -1.6 °C 1018.2 hPa Calm     95 % 0 mm WeatherDisplay:10.37 W/m2 OVC
06:10 -0.8 °C -1.6 °C 1017.8 hPa Calm     95 % 0 mm WeatherDisplay:10.37 W/m2 OVC
06:19 -0.8 °C -1.5 °C 1017.8 hPa Calm     95 % 0 mm WeatherDisplay:10.37 W/m2 OVC
06:24 -0.8 °C -1.4 °C 1017.8 hPa Calm     95 % 0 mm WeatherDisplay:10.37 W/m2 OVC
06:29 -0.7 °C -1.4 °C 1017.8 hPa Calm     95 % 0 mm WeatherDisplay:10.37 W/m2 OVC
06:39 -0.7 °C -1.4 °C 1017.8 hPa Calm     95 % 0 mm WeatherDisplay:10.37 W/m2 OVC
06:44 -0.6 °C -1.3 °C 1017.8 hPa Calm     95 % 0 mm WeatherDisplay:10.37 W/m2 OVC
06:49 -0.6 °C -1.2 °C 1017.8 hPa Calm     95 % 0 mm WeatherDisplay:10.37 W/m2 OVC
06:59 -0.4 °C -1.2 °C 1017.8 hPa Calm     95 % 0.25 mm WeatherDisplay:10.37 W/m2 RA
07:04 -0.4 °C -1.1 °C 1017.8 hPa Calm     95 % 0 mm WeatherDisplay:10.37 W/m2 RA
07:09 -0.3 °C -1.1 °C 1017.8 hPa Calm     95 % 0 mm WeatherDisplay:10.37 W/m2 OVC
07:14 -0.3 °C -1.1 °C 1017.8 hPa Calm     95 % 0 mm WeatherDisplay:10.37 W/m2 OVC
07:19 -0.3 °C -1 °C 1017.5 hPa Calm     95 % 0 mm WeatherDisplay:10.37 W/m2 OVC
07:29 -0.2 °C -0.9 °C 1017.5 hPa Calm     95 % 0 mm WeatherDisplay:10.37 W/m2 OVC
07:34 -0.2 °C -0.9 °C 1017.5 hPa Calm     95 % 0 mm WeatherDisplay:10.37 W/m2 OVC
07:39 -0.1 °C -0.7 °C 1017.5 hPa Calm     96 % 0 mm WeatherDisplay:10.37 W/m2 OVC
07:54 0 °C -0.6 °C 1017.5 hPa Calm     96 % 0 mm WeatherDisplay:10.37 W/m2 OVC
08:09 0 °C -0.7 °C 1017.8 hPa Calm     95 % 0 mm WeatherDisplay:10.37 W/m2 OVC
08:14 0 °C -0.7 °C 1017.8 hPa Calm     95 % 0 mm WeatherDisplay:10.37 W/m2 OVC
08:19 0 °C -0.7 °C 1017.8 hPa Calm     95 % 0 mm WeatherDisplay:10.37 W/m2 OVC
08:24 0 °C -0.7 °C 1017.8 hPa Calm     95 % 0 mm WeatherDisplay:10.37 W/m2 OVC
08:29 0.1 °C -0.7 °C 1017.8 hPa Calm     95 % 0 mm WeatherDisplay:10.37 W/m2 OVC
08:34 0.1 °C -0.7 °C 1017.5 hPa Calm     95 % 0 mm WeatherDisplay:10.37 W/m2 OVC
08:39 0.1 °C -0.7 °C 1017.5 hPa Calm     95 % 0 mm WeatherDisplay:10.37 W/m2 OVC
08:44 0.1 °C -0.5 °C 1017.5 hPa Calm     96 % 0 mm WeatherDisplay:10.37 W/m2 OVC
08:54 0.2 °C -0.4 °C 1017.8 hPa Calm     96 % 0 mm WeatherDisplay:10.37 W/m2 OVC
08:59 0.2 °C -0.6 °C 1017.8 hPa Calm     95 % 0 mm WeatherDisplay:10.37 W/m2 OVC
09:04 0.2 °C -0.6 °C 1017.8 hPa Calm     95 % 0 mm WeatherDisplay:10.37 W/m2 OVC
09:14 0.2 °C -0.5 °C 1017.8 hPa Calm     95 % 0 mm WeatherDisplay:10.37 W/m2 OVC
09:24 0.3 °C -0.3 °C 1017.8 hPa Calm     96 % 0 mm WeatherDisplay:10.37 W/m2 OVC
09:29 0.3 °C -0.3 °C 1018.2 hPa Calm     96 % 0 mm WeatherDisplay:10.37 W/m2 OVC
09:34 0.3 °C -0.3 °C 1018.2 hPa Calm     96 % 0 mm WeatherDisplay:10.37 W/m2 OVC
09:39 0.3 °C -0.3 °C 1018.2 hPa Calm     96 % 0 mm WeatherDisplay:10.37 W/m2 OVC
09:44 0.3 °C -0.2 °C 1018.2 hPa Calm     96 % 0 mm WeatherDisplay:10.37 W/m2 OVC
09:49 0.3 °C -0.2 °C 1018.2 hPa Calm     96 % 0 mm WeatherDisplay:10.37 W/m2 OVC
10:04 0.4 °C -0.2 °C 1018.2 hPa Calm     96 % 0.25 mm WeatherDisplay:10.37 W/m2 RA
10:14 0.4 °C -0.1 °C 1018.2 hPa Calm     96 % 0 mm WeatherDisplay:10.37 W/m2 OVC
10:24 0.5 °C -0.1 °C 1018.2 hPa Calm     96 % 0 mm WeatherDisplay:10.37 W/m2 OVC
10:29 0.5 °C -0.1 °C 1018.2 hPa Calm     96 % 0 mm WeatherDisplay:10.37 W/m2 OVC
10:34 0.5 °C -0.1 °C 1018.2 hPa Calm     96 % 0 mm WeatherDisplay:10.37 W/m2 OVC
10:39 0.6 °C 0 °C 1018.2 hPa Calm     96 % 0 mm WeatherDisplay:10.37 W/m2 OVC
10:44 0.6 °C 0 °C 1018.2 hPa Calm     96 % 0 mm WeatherDisplay:10.37 W/m2 OVC
10:49 0.6 °C 0 °C 1017.8 hPa Calm     96 % 0 mm WeatherDisplay:10.37 W/m2 OVC
10:54 0.6 °C 0.1 °C 1017.8 hPa Calm     96 % 0 mm WeatherDisplay:10.37 W/m2 OVC
10:59 0.6 °C 0.1 °C 1017.8 hPa Calm     96 % 0 mm WeatherDisplay:10.37 W/m2 OVC
11:04 0.6 °C 0.1 °C 1017.8 hPa Calm     96 % 0 mm WeatherDisplay:10.37 W/m2 -DZ
11:09 0.7 °C 0.1 °C 1017.8 hPa Calm     96 % 0 mm WeatherDisplay:10.37 W/m2 -DZ
11:14 0.7 °C 0.1 °C 1017.8 hPa Calm     96 % 0 mm WeatherDisplay:10.37 W/m2 -DZ
11:19 0.7 °C 0.1 °C 1017.5 hPa Calm     96 % 0 mm WeatherDisplay:10.37 W/m2 -DZ
11:34 0.8 °C 0.2 °C 1017.2 hPa Calm     96 % 0 mm WeatherDisplay:10.37 W/m2 -RA
11:39 0.8 °C 0.3 °C 1017.2 hPa Calm     96 % 0 mm WeatherDisplay:10.37 W/m2 -RA
11:44 0.8 °C 0.3 °C 1017.2 hPa Calm     96 % 0 mm WeatherDisplay:10.37 W/m2 -RA
11:49 0.8 °C 0.3 °C 1017.2 hPa Calm     96 % 0 mm WeatherDisplay:10.37 W/m2 -RA
11:59 0.8 °C 0.3 °C 1016.8 hPa Calm     96 % 0 mm WeatherDisplay:10.37 W/m2 -RA
12:04 0.8 °C 0.3 °C 1016.8 hPa Calm     96 % 0 mm WeatherDisplay:10.37 W/m2 -RA
12:09 0.9 °C 0.3 °C 1016.8 hPa Calm     96 % 0 mm WeatherDisplay:10.37 W/m2 -RA
12:14 0.9 °C 0.3 °C 1016.8 hPa Calm     96 % 0 mm WeatherDisplay:10.37 W/m2 -RA
12:19 0.9 °C 0.3 °C 1016.5 hPa Calm     96 % 0 mm WeatherDisplay:10.37 W/m2 -RA
12:24 0.9 °C 0.3 °C 1016.5 hPa Calm     96 % 0 mm WeatherDisplay:10.37 W/m2 -RA
12:29 0.9 °C 0.3 °C 1016.5 hPa Calm     96 % 0 mm WeatherDisplay:10.37 W/m2 -RA
12:34 0.9 °C 0.4 °C 1016.5 hPa Calm     96 % 0 mm WeatherDisplay:10.37 W/m2 -RA
12:39 0.9 °C 0.4 °C 1016.5 hPa Calm     96 % 0 mm WeatherDisplay:10.37 W/m2 -RA
12:44 0.9 °C 0.4 °C 1016.5 hPa Calm     96 % 0 mm WeatherDisplay:10.37 W/m2 -RA
12:49 0.9 °C 0.4 °C 1016.5 hPa Calm     96 % 0 mm WeatherDisplay:10.37 W/m2 -RA
12:54 1 °C 0.4 °C 1016.1 hPa Calm     96 % 0 mm WeatherDisplay:10.37 W/m2 -RA
12:59 1 °C 0.4 °C 1016.1 hPa Calm     96 % 0 mm WeatherDisplay:10.37 W/m2 -RA
13:04 1.1 °C 0.4 °C 1016.1 hPa Calm     96 % 0 mm WeatherDisplay:10.37 W/m2 -RA
13:09 1.1 °C 0.5 °C 1016.1 hPa Calm     96 % 0 mm WeatherDisplay:10.37 W/m2 -RA
13:19 1.1 °C 0.6 °C 1015.8 hPa Calm     96 % 0 mm WeatherDisplay:10.37 W/m2 -DZ
13:24 1.2 °C 0.6 °C 1015.8 hPa Calm     96 % 0 mm WeatherDisplay:10.37 W/m2 -DZ
13:29 1.2 °C 0.7 °C 1015.8 hPa Calm     96 % 0 mm WeatherDisplay:10.37 W/m2 OVC
13:35 1.2 °C 0.7 °C 1015.8 hPa Calm     96 % 0 mm WeatherDisplay:10.37 W/m2 OVC
13:44 1.2 °C 0.7 °C 1015.8 hPa Calm     96 % 0 mm WeatherDisplay:10.37 W/m2 OVC
13:49 1.2 °C 0.7 °C 1015.8 hPa Calm     96 % 0 mm WeatherDisplay:10.37 W/m2 OVC
13:54 1.2 °C 0.7 °C 1015.8 hPa Calm     96 % 0 mm WeatherDisplay:10.37 W/m2 OVC
13:59 1.2 °C 0.7 °C 1015.8 hPa Calm     96 % 0 mm WeatherDisplay:10.37 W/m2 OVC
14:04 1.2 °C 0.7 °C 1015.8 hPa Calm     96 % 0 mm WeatherDisplay:10.37 W/m2 OVC
14:09 1.2 °C 0.6 °C 1015.8 hPa Calm     96 % 0 mm WeatherDisplay:10.37 W/m2 OVC
14:14 1.2 °C 0.6 °C 1015.8 hPa Calm     96 % 0 mm WeatherDisplay:10.37 W/m2 OVC
14:19 1.2 °C 0.6 °C 1015.8 hPa Calm     96 % 0 mm WeatherDisplay:10.37 W/m2 OVC
14:24 1.2 °C 0.6 °C 1015.8 hPa Calm     96 % 0 mm WeatherDisplay:10.37 W/m2 OVC
14:29 1.2 °C 0.6 °C 1015.8 hPa Calm     96 % 0 mm WeatherDisplay:10.37 W/m2 OVC
14:34 1.2 °C 0.6 °C 1015.8 hPa Calm     96 % 0 mm WeatherDisplay:10.37 W/m2 OVC
14:39 1.1 °C 0.6 °C 1015.5 hPa Calm     96 % 0 mm WeatherDisplay:10.37 W/m2 OVC
14:44 1.1 °C 0.6 °C 1015.5 hPa Calm     96 % 0 mm WeatherDisplay:10.37 W/m2 OVC
14:49 1.1 °C 0.6 °C 1015.5 hPa Calm     96 % 0 mm WeatherDisplay:10.37 W/m2 OVC
14:59 1.1 °C 0.6 °C 1015.8 hPa Calm     96 % 0 mm WeatherDisplay:10.37 W/m2 OVC
15:09 1.1 °C 0.6 °C 1015.5 hPa Calm     96 % 0 mm WeatherDisplay:10.37 W/m2 OVC
15:14 1.1 °C 0.6 °C 1015.5 hPa Calm     96 % 0 mm WeatherDisplay:10.37 W/m2 OVC
15:19 1.1 °C 0.6 °C 1015.8 hPa Calm     96 % 0 mm WeatherDisplay:10.37 W/m2 OVC
15:24 1.1 °C 0.5 °C 1015.5 hPa Calm     96 % 0 mm WeatherDisplay:10.37 W/m2 OVC
15:34 1.1 °C 0.5 °C 1015.5 hPa Calm     96 % 0 mm WeatherDisplay:10.37 W/m2 OVC
15:39 1.1 °C 0.5 °C 1015.5 hPa Calm     96 % 0 mm WeatherDisplay:10.37 W/m2 OVC
15:44 1.1 °C 0.5 °C 1015.8 hPa Calm     96 % 0 mm WeatherDisplay:10.37 W/m2 OVC
15:49 1 °C 0.4 °C 1015.8 hPa Calm     96 % 0 mm WeatherDisplay:10.37 W/m2 OVC
15:54 1 °C 0.4 °C 1015.5 hPa Calm     96 % 0 mm WeatherDisplay:10.37 W/m2 OVC
16:00 1 °C 0.4 °C 1015.5 hPa Calm     96 % 0 mm WeatherDisplay:10.37 W/m2 OVC
16:09 0.9 °C 0.4 °C 1015.5 hPa Calm     96 % 0 mm WeatherDisplay:10.37 W/m2 OVC
16:14 0.9 °C 0.4 °C 1015.5 hPa Calm     96 % 0 mm WeatherDisplay:10.37 W/m2 OVC
16:19 0.9 °C 0.3 °C 1015.5 hPa Calm     96 % 0 mm WeatherDisplay:10.37 W/m2 OVC
16:24 0.9 °C 0.3 °C 1015.5 hPa Calm     96 % 0 mm WeatherDisplay:10.37 W/m2 OVC
16:29 0.9 °C 0.3 °C 1015.5 hPa Calm     96 % 0 mm WeatherDisplay:10.37 W/m2 OVC
16:34 0.9 °C 0.3 °C 1015.5 hPa Calm     96 % 0 mm WeatherDisplay:10.37 W/m2 OVC
16:39 0.8 °C 0.3 °C 1015.5 hPa Calm     96 % 0 mm WeatherDisplay:10.37 W/m2 OVC
16:44 0.8 °C 0.1 °C 1015.1 hPa Calm     95 % 0 mm WeatherDisplay:10.37 W/m2 OVC
16:49 0.8 °C 0.1 °C 1015.5 hPa Calm     95 % 0 mm WeatherDisplay:10.37 W/m2 OVC
16:59 0.8 °C 0.1 °C 1015.5 hPa Calm     95 % 0 mm WeatherDisplay:10.37 W/m2 OVC
17:09 0.8 °C 0.1 °C 1015.5 hPa Calm     95 % 0 mm WeatherDisplay:10.37 W/m2 OVC
17:14 0.8 °C 0.1 °C 1015.5 hPa Calm     95 % 0 mm WeatherDisplay:10.37 W/m2 OVC
17:19 0.8 °C 0.2 °C 1015.5 hPa Calm     96 % 0 mm WeatherDisplay:10.37 W/m2 OVC
17:44 0.9 °C 0.3 °C 1015.5 hPa Calm     96 % 0 mm WeatherDisplay:10.37 W/m2 OVC
17:49 0.9 °C 0.3 °C 1015.1 hPa Calm     96 % 0 mm WeatherDisplay:10.37 W/m2 OVC
17:54 0.9 °C 0.3 °C 1015.5 hPa Calm     96 % 0 mm WeatherDisplay:10.37 W/m2 OVC
17:59 0.9 °C 0.3 °C 1015.5 hPa Calm     96 % 0 mm WeatherDisplay:10.37 W/m2 OVC
18:04 0.9 °C 0.3 °C 1015.5 hPa Calm     96 % 0 mm WeatherDisplay:10.37 W/m2 OVC
18:09 0.9 °C 0.3 °C 1015.1 hPa Calm     96 % 0 mm WeatherDisplay:10.37 W/m2 OVC
18:14 0.8 °C 0.3 °C 1015.1 hPa Calm     96 % 0 mm WeatherDisplay:10.37 W/m2 OVC
18:19 0.8 °C 0.3 °C 1015.1 hPa Calm   1.6 km/h 96 % 0 mm WeatherDisplay:10.37 W/m2 OVC
18:24 0.8 °C 0.3 °C 1015.1 hPa Calm     96 % 0 mm WeatherDisplay:10.37 W/m2 OVC
18:29 0.8 °C 0.3 °C 1015.1 hPa Calm     96 % 0 mm WeatherDisplay:10.37 W/m2 OVC
18:34 0.9 °C 0.3 °C 1015.1 hPa Calm     96 % 0 mm WeatherDisplay:10.37 W/m2 OVC
18:39 0.9 °C 0.3 °C 1015.1 hPa Calm     96 % 0 mm WeatherDisplay:10.37 W/m2 OVC
18:44 0.9 °C 0.3 °C 1015.1 hPa Calm     96 % 0 mm WeatherDisplay:10.37 W/m2 OVC
18:49 0.9 °C 0.3 °C 1014.8 hPa Calm     96 % 0 mm WeatherDisplay:10.37 W/m2 OVC
18:54 0.9 °C 0.3 °C 1015.1 hPa Calm     96 % 0 mm WeatherDisplay:10.37 W/m2 OVC
18:59 0.9 °C 0.3 °C 1015.1 hPa Calm     96 % 0 mm WeatherDisplay:10.37 W/m2 OVC
19:04 0.9 °C 0.4 °C 1015.1 hPa Calm     96 % 0 mm WeatherDisplay:10.37 W/m2 OVC
19:14 0.9 °C 0.4 °C 1015.1 hPa Calm     96 % 0 mm WeatherDisplay:10.37 W/m2 OVC
19:24 0.9 °C 0.4 °C 1014.8 hPa Calm     96 % 0.25 mm WeatherDisplay:10.37 W/m2 RA
19:34 0.9 °C 0.4 °C 1014.4 hPa Calm     96 % 0 mm WeatherDisplay:10.37 W/m2 OVC
19:44 1 °C 0.4 °C 1014.4 hPa Calm     96 % 0 mm WeatherDisplay:10.37 W/m2 OVC
20:04 1 °C 0.4 °C 1014.4 hPa Calm     96 % 0 mm WeatherDisplay:10.37 W/m2 -RA
20:09 1 °C 0.4 °C 1014.1 hPa Calm     96 % 0 mm WeatherDisplay:10.37 W/m2 -RA
20:14 1 °C 0.4 °C 1014.1 hPa Calm     96 % 0 mm WeatherDisplay:10.37 W/m2 -RA
20:19 1.1 °C 0.4 °C 1014.1 hPa Calm     96 % 0.25 mm WeatherDisplay:10.37 W/m2 -RA
20:24 1.1 °C 0.5 °C 1013.8 hPa Calm     96 % 0 mm WeatherDisplay:10.37 W/m2 -RA
20:29 1.1 °C 0.6 °C 1013.8 hPa Calm     96 % 0.25 mm WeatherDisplay:10.37 W/m2 -RA
20:34 1.2 °C 0.6 °C 1013.8 hPa Calm     96 % 0 mm WeatherDisplay:10.37 W/m2 -RA
20:39 1.2 °C 0.6 °C 1013.8 hPa Calm     96 % 0 mm WeatherDisplay:10.37 W/m2 -RA
20:44 1.2 °C 0.6 °C 1013.8 hPa Calm     96 % 0.25 mm WeatherDisplay:10.37 W/m2 -RA
20:49 1.2 °C 0.6 °C 1013.8 hPa Calm     96 % 0 mm WeatherDisplay:10.37 W/m2 -RA
20:54 1.2 °C 0.6 °C 1013.8 hPa Calm     96 % 0 mm WeatherDisplay:10.37 W/m2 -RA
20:59 1.2 °C 0.6 °C 1013.8 hPa Calm     96 % 0 mm WeatherDisplay:10.37 W/m2 -RA
21:04 1.2 °C 0.7 °C 1013.8 hPa Calm     96 % 0 mm WeatherDisplay:10.37 W/m2 -RA
21:09 1.3 °C 0.7 °C 1013.4 hPa Calm     96 % 0.25 mm WeatherDisplay:10.37 W/m2 -RA
21:14 1.3 °C 0.7 °C 1013.4 hPa Calm     96 % 0 mm WeatherDisplay:10.37 W/m2 -RA
21:19 1.3 °C 0.7 °C 1013.4 hPa Calm     96 % 0 mm WeatherDisplay:10.37 W/m2 -RA
21:24 1.3 °C 0.8 °C 1013.4 hPa Calm     96 % 0.51 mm WeatherDisplay:10.37 W/m2 -RA
21:39 1.4 °C 0.9 °C 1013.1 hPa Calm     96 % 0.51 mm WeatherDisplay:10.37 W/m2 -RA
21:44 1.4 °C 0.9 °C 1013.1 hPa Calm     96 % 0 mm WeatherDisplay:10.37 W/m2 -RA
21:49 1.5 °C 1.5 °C 1013.1 hPa Calm     100 % 0.25 mm WeatherDisplay:10.37 W/m2 -RA
21:54 1.6 °C 1.6 °C 1013.1 hPa Calm     100 % 0.25 mm WeatherDisplay:10.37 W/m2 -RA
22:09 1.7 °C 1.1 °C 1012.8 hPa Calm     96 % 0.25 mm WeatherDisplay:10.37 W/m2 -RA
22:14 1.7 °C 1.1 °C 1012.8 hPa Calm     96 % 0.25 mm WeatherDisplay:10.37 W/m2 -RA
22:24 1.7 °C 1.2 °C 1012.4 hPa Calm     96 % 0.25 mm WeatherDisplay:10.37 W/m2 -RA
22:29 1.8 °C 1.8 °C 1012.4 hPa Calm     100 % 0.25 mm WeatherDisplay:10.37 W/m2 -RA
22:34 1.8 °C 1.8 °C 1012.4 hPa Calm     100 % 0.25 mm WeatherDisplay:10.37 W/m2 -RA
22:39 1.8 °C 1.8 °C 1012.1 hPa Calm     100 % 0.25 mm WeatherDisplay:10.37 W/m2 -RA
22:49 1.8 °C 1.8 °C 1012.1 hPa Calm     100 % 0.25 mm WeatherDisplay:10.37 W/m2 -RA
22:54 1.8 °C 1.8 °C 1012.1 hPa Calm     100 % 0 mm WeatherDisplay:10.37 W/m2 -RA
22:59 1.8 °C 1.8 °C 1012.1 hPa Calm     100 % 0 mm WeatherDisplay:10.37 W/m2 -RA
23:04 1.8 °C 1.8 °C 1012.1 hPa Calm     100 % 0.25 mm WeatherDisplay:10.37 W/m2 -RA
23:09 1.8 °C 1.8 °C 1012.1 hPa Calm     100 % 0.51 mm WeatherDisplay:10.37 W/m2 -RA
23:14 1.8 °C 1.8 °C 1012.1 hPa Calm     100 % 0.51 mm WeatherDisplay:10.37 W/m2 -RA
23:19 1.8 °C 1.8 °C 1011.7 hPa Calm     100 % 0.51 mm WeatherDisplay:10.37 W/m2 -RA
23:29 1.9 °C 1.9 °C 1011.7 hPa Calm     100 % 1.02 mm WeatherDisplay:10.37 W/m2 -RA
23:34 2.1 °C 2.1 °C 1011.7 hPa Calm     100 % 0.51 mm WeatherDisplay:10.37 W/m2 -RA
23:39 2.2 °C 2.2 °C 1011.7 hPa Calm     100 % 0.51 mm WeatherDisplay:10.37 W/m2 -RA
23:44 2.2 °C 2.2 °C 1011.7 hPa Calm     100 % 0.51 mm WeatherDisplay:10.37 W/m2 -RA
23:49 2.3 °C 2.3 °C 1011.4 hPa Calm     100 % 0.76 mm WeatherDisplay:10.37 W/m2 -RA
23:54 2.3 °C 2.3 °C 1011.4 hPa Calm     100 % 0.51 mm WeatherDisplay:10.37 W/m2 -RA
23:59 2.4 °C 2.4 °C 1011.1 hPa Calm     100 % 0.51 mm WeatherDisplay:10.37 W/m2 -RA
Juneau County Weather
Compliments of Weather Underground - 2.5 mb